Location: ?
(35.2180°N, 139.6392°E)
Time: 17:11:38
(UTC+00:00)

Cosmos 2344 - Pass Details

Date: 05 August 2024
Orbit: 1207 x 3035 km, 63.3° (Epoch: 18 September)

Event Time Altitude Azimuth Distance (km) Brightness Sun altitude
Exits shadow 12:26:30 60° 130° (SE) 1,431 3.4 -28.2°
Maximum altitude 12:26:52 61° 117° (ESE) 1,417 3.5 -28.3°
Drops below altitude 10° 12:33:57 10° 39° (NE) 3,153 5.8 -29.2°
Sets 12:36:38 0° 36° (NE) 4,142 6.5 -29.5°
